Location: Lahitte
(43.6596°N, 0.6805°E)
Time: 15:53:21
(UTC+00:00)

Cosmos 2227 Rocket - Pass Details

Date: 15 May 2026
Orbit: 838 x 844 km, 71.0° (Epoch: 10 June)

Event Time Altitude Azimuth Distance (km) Brightness Sun altitude
Exits shadow 22:56:00 14° 85° (E) 2,161 4.2 -25.9°
Drops below altitude 10° 22:58:04 10° 64° (ENE) 2,468 4.7 -26.0°
Sets 23:01:34 0° 42° (NE) 3,409 5.8 -26.2°
